Location: Grandview
(34.8900°N, 117.1058°W)
Time: 04:48:02
(UTC-07:00)

Hubble Space Telescope - Pass Details

Date: 07 October 2017
Orbit: 537 x 541 km, 28.5° (Epoch: 23 October)

Event Time Altitude Azimuth Distance (km) Brightness Sun altitude
Exits shadow 05:47:24 17° 238° (WSW) 1,384 2.3 -13.3°
Maximum altitude 05:49:44 29° 188° (S) 994 2.0 -12.8°
Drops below altitude 10° 05:53:21 10° 128° (SE) 1,787 4.2 -12.0°
Sets 05:55:48 0° 117° (ESE) 2,677 5.5 -11.5°
